When you browse on this site, cookies collect data to enhance your experience and personalize the content and advertising you see.
Visit our Privacy Policy to learn more. By continuing to use the site, you agree to this use of cookies and data.
  • In Austria
  • List of Countries
  • For 7 days
  • Water Temperature
  • Satellite Maps
  • Weather Map
  • News
  • Weather Widgets
  • user-avatar
    Login

    Hourly Weather Zaranj

    Today, 23 April, Tuesday

    Time Temperature Precipitation Wind Pressure Humidity
    00:00 +31°C° 0 mm 2 mps 714 mmHg 28%
    01:00 +31°C° 0 mm 2 mps 714 mmHg 29%
    02:00 +31°C° 0 mm 3 mps 714 mmHg 29%
    03:00 +30°C° 0 mm 3 mps 714 mmHg 30%
    04:00 +30°C° 0 mm 3 mps 714 mmHg 31%
    05:00 +30°C° 0 mm 3 mps 714 mmHg 30%
    06:00 +31°C° 0 mm 3 mps 714 mmHg 30%
    07:00 +31°C° 0 mm 3 mps 715 mmHg 29%
    08:00 +34°C° 0 mm 3 mps 715 mmHg 25%
    09:00 +36°C° 0 mm 3 mps 715 mmHg 22%
    10:00 +37°C° 0 mm 3 mps 715 mmHg 18%
    11:00 +38°C° 0 mm 3 mps 714 mmHg 16%
    12:00 +41°C° 0 mm 4 mps 714 mmHg 14%
    13:00 +42°C° 0 mm 5 mps 714 mmHg 13%
    14:00 +40°C° 0.1 mm 8 mps 713 mmHg 16%
    15:00 +38°C° 0.1 mm 11 mps 713 mmHg 20%
    16:00 +37°C° 0.1 mm 15 mps 712 mmHg 23%
    17:00 +37°C° 0.4 mm 10 mps 712 mmHg 24%
    18:00 +35°C° 0.4 mm 6 mps 712 mmHg 24%
    19:00 +34°C° 0.4 mm 1 mps 712 mmHg 24%
    20:00 +34°C° 0 mm 3 mps 712 mmHg 25%
    21:00 +34°C° 0 mm 5 mps 712 mmHg 27%
    22:00 +33°C° 0 mm 7 mps 712 mmHg 28%
    23:00 +31°C° 0 mm 9 mps 712 mmHg 32%

    Tomorrow, 24 April, Wednesday

    Time Temperature Precipitation Wind Pressure Humidity
    00:00 +27°C° 0 mm 11 mps 712 mmHg 36%
    01:00 +24°C° 0 mm 12 mps 712 mmHg 40%
    02:00 +22°C° 0 mm 13 mps 713 mmHg 41%
    03:00 +20°C° 0 mm 14 mps 713 mmHg 43%
    04:00 +18°C° 0 mm 15 mps 714 mmHg 45%
    05:00 +18°C° 0 mm 15 mps 715 mmHg 45%
    06:00 +18°C° 0 mm 15 mps 716 mmHg 44%
    07:00 +18°C° 0 mm 15 mps 717 mmHg 44%
    08:00 +19°C° 0 mm 14 mps 718 mmHg 40%
    09:00 +20°C° 0 mm 14 mps 719 mmHg 37%
    10:00 +22°C° 0 mm 13 mps 720 mmHg 33%
    11:00 +23°C° 0 mm 13 mps 719 mmHg 30%
    12:00 +24°C° 0 mm 13 mps 719 mmHg 27%
    13:00 +26°C° 0 mm 12 mps 719 mmHg 24%
    14:00 +26°C° 0 mm 12 mps 719 mmHg 23%
    15:00 +26°C° 0 mm 11 mps 719 mmHg 22%
    16:00 +26°C° 0 mm 10 mps 718 mmHg 21%
    17:00 +24°C° 0 mm 10 mps 718 mmHg 22%
    18:00 +23°C° 0 mm 10 mps 719 mmHg 24%
    19:00 +22°C° 0 mm 10 mps 719 mmHg 25%
    20:00 +21°C° 0 mm 11 mps 719 mmHg 27%
    21:00 +21°C° 0 mm 11 mps 720 mmHg 29%
    22:00 +19°C° 0 mm 12 mps 720 mmHg 31%
    23:00 +18°C° 0 mm 12 mps 720 mmHg 32%

    Day after tomorrow, 25 April, Thursday

    Time Temperature Precipitation Wind Pressure Humidity
    00:00 +17°C° 0 mm 13 mps 720 mmHg 34%
    01:00 +15°C° 0 mm 13 mps 720 mmHg 36%
    02:00 +15°C° 0 mm 13 mps 720 mmHg 37%
    03:00 +14°C° 0 mm 13 mps 720 mmHg 38%
    04:00 +14°C° 0 mm 13 mps 720 mmHg 39%
    05:00 +14°C° 0 mm 13 mps 720 mmHg 39%
    06:00 +14°C° 0 mm 13 mps 721 mmHg 38%
    07:00 +14°C° 0 mm 13 mps 721 mmHg 37%
    08:00 +15°C° 0 mm 12 mps 722 mmHg 33%
    09:00 +18°C° 0 mm 12 mps 722 mmHg 30%
    10:00 +19°C° 0 mm 12 mps 722 mmHg 26%
    11:00 +21°C° 0 mm 11 mps 722 mmHg 23%
    12:00 +23°C° 0 mm 10 mps 721 mmHg 21%
    13:00 +24°C° 0 mm 10 mps 721 mmHg 19%
    14:00 +24°C° 0 mm 9 mps 721 mmHg 18%
    15:00 +24°C° 0 mm 9 mps 720 mmHg 18%
    16:00 +26°C° 0 mm 8 mps 720 mmHg 17%
    17:00 +24°C° 0 mm 8 mps 720 mmHg 18%
    18:00 +23°C° 0 mm 7 mps 720 mmHg 19%
    19:00 +23°C° 0 mm 7 mps 720 mmHg 21%
    20:00 +22°C° 0 mm 8 mps 720 mmHg 23%
    21:00 +21°C° 0 mm 8 mps 720 mmHg 25%
    22:00 +21°C° 0 mm 9 mps 721 mmHg 28%
    23:00 +19°C° 0 mm 9 mps 720 mmHg 29%

    26 April, Friday

    Time Temperature Precipitation Wind Pressure Humidity
    00:00 +18°C° 0 mm 10 mps 720 mmHg 31%
    01:00 +18°C° 0 mm 10 mps 720 mmHg 32%
    02:00 +17°C° 0 mm 10 mps 720 mmHg 33%
    03:00 +17°C° 0 mm 10 mps 720 mmHg 33%
    04:00 +16°C° 0 mm 10 mps 720 mmHg 34%
    05:00 +16°C° 0 mm 11 mps 720 mmHg 33%
    06:00 +16°C° 0 mm 11 mps 721 mmHg 33%
    07:00 +17°C° 0 mm 11 mps 721 mmHg 32%
    08:00 +18°C° 0 mm 11 mps 721 mmHg 28%
    09:00 +21°C° 0 mm 11 mps 722 mmHg 24%
    10:00 +22°C° 0 mm 10 mps 722 mmHg 20%
    11:00 +23°C° 0 mm 10 mps 721 mmHg 18%
    12:00 +24°C° 0 mm 10 mps 721 mmHg 17%
    13:00 +27°C° 0 mm 9 mps 720 mmHg 15%
    14:00 +27°C° 0 mm 9 mps 720 mmHg 15%
    15:00 +27°C° 0 mm 8 mps 720 mmHg 14%
    16:00 +28°C° 0 mm 8 mps 719 mmHg 14%
    17:00 +27°C° 0 mm 8 mps 719 mmHg 15%
    18:00 +26°C° 0 mm 8 mps 719 mmHg 17%
    19:00 +24°C° 0 mm 8 mps 719 mmHg 18%
    20:00 +23°C° 0 mm 8 mps 720 mmHg 20%
    21:00 +22°C° 0 mm 9 mps 720 mmHg 22%
    22:00 +22°C° 0 mm 9 mps 720 mmHg 24%
    23:00 +21°C° 0 mm 9 mps 720 mmHg 25%

    27 April, Saturday

    Time Temperature Precipitation Wind Pressure Humidity
    00:00 +21°C° 0 mm 10 mps 720 mmHg 27%
    01:00 +19°C° 0 mm 10 mps 719 mmHg 28%
    02:00 +19°C° 0 mm 10 mps 719 mmHg 29%
    03:00 +18°C° 0 mm 10 mps 719 mmHg 30%
    04:00 +18°C° 0 mm 10 mps 719 mmHg 30%
    05:00 +18°C° 0 mm 11 mps 720 mmHg 30%
    06:00 +18°C° 0 mm 11 mps 720 mmHg 29%
    07:00 +18°C° 0 mm 11 mps 721 mmHg 28%
    08:00 +21°C° 0 mm 11 mps 721 mmHg 25%
    09:00 +22°C° 0 mm 11 mps 721 mmHg 21%
    10:00 +24°C° 0 mm 11 mps 722 mmHg 18%
    11:00 +26°C° 0 mm 11 mps 721 mmHg 17%
    12:00 +27°C° 0 mm 11 mps 721 mmHg 15%
    13:00 +28°C° 0 mm 11 mps 720 mmHg 14%
    14:00 +28°C° 0 mm 10 mps 720 mmHg 14%
    15:00 +28°C° 0 mm 10 mps 719 mmHg 14%
    16:00 +28°C° 0 mm 10 mps 719 mmHg 14%
    17:00 +27°C° 0 mm 10 mps 719 mmHg 15%
    18:00 +27°C° 0 mm 9 mps 720 mmHg 16%
    19:00 +26°C° 0 mm 9 mps 720 mmHg 17%
    20:00 +24°C° 0 mm 10 mps 720 mmHg 19%
    21:00 +23°C° 0 mm 10 mps 721 mmHg 20%
    22:00 +22°C° 0 mm 11 mps 721 mmHg 22%
    23:00 +22°C° 0 mm 10 mps 721 mmHg 24%

    28 April, Sunday

    Time Temperature Precipitation Wind Pressure Humidity
    00:00 +21°C° 0 mm 10 mps 721 mmHg 26%
    01:00 +19°C° 0 mm 10 mps 721 mmHg 27%
    02:00 +19°C° 0 mm 10 mps 721 mmHg 28%
    03:00 +18°C° 0 mm 10 mps 720 mmHg 29%
    04:00 +18°C° 0 mm 10 mps 720 mmHg 30%
    05:00 +18°C° 0 mm 10 mps 721 mmHg 29%
    06:00 +18°C° 0 mm 10 mps 721 mmHg 28%
    07:00 +19°C° 0 mm 10 mps 721 mmHg 26%
    08:00 +21°C° 0 mm 10 mps 722 mmHg 23%
    09:00 +22°C° 0 mm 10 mps 722 mmHg 20%
    10:00 +24°C° 0 mm 10 mps 722 mmHg 17%
    11:00 +26°C° 0 mm 10 mps 721 mmHg 15%
    12:00 +27°C° 0 mm 9 mps 721 mmHg 14%
    13:00 +28°C° 0 mm 9 mps 720 mmHg 13%
    14:00 +28°C° 0 mm 8 mps 719 mmHg 13%
    15:00 +28°C° 0 mm 8 mps 719 mmHg 12%
    16:00 +29°C° 0 mm 8 mps 718 mmHg 12%
    17:00 +28°C° 0 mm 7 mps 718 mmHg 13%
    18:00 +27°C° 0 mm 7 mps 718 mmHg 15%
    19:00 +26°C° 0 mm 6 mps 718 mmHg 16%
    20:00 +26°C° 0 mm 7 mps 719 mmHg 17%
    21:00 +24°C° 0 mm 7 mps 719 mmHg 19%
    22:00 +23°C° 0 mm 7 mps 719 mmHg 20%
    23:00 +23°C° 0 mm 7 mps 719 mmHg 22%
    Show more